User: anonymous   Login
Location: Caltech
(34.1382°N, 118.1253°W)
Time: 18:29:02
(UTC-07:00)
Language:

Iridium 49 - Orbit

View from above orbital plane
View from above orbital plane
View from above satellite
View from above satellite

Ground track
Ground track

The orbit data is extracted from the following two-line orbital elements,

1 25108U 97082E   15208.48682765  .00000031  00000-0  39135-5 0  9994
2 25108 086.3980 184.1332 0002438 087.5908 028.1960 14.34214549921373
Epoch (UTC): 27 July 2015 11:41:01
Eccentricity: 0.0002438
inclination: 86.3980°
perigee height: 776 km
apogee height: 779 km
right ascension of ascending node: 184.1332°
argument of perigee: 87.5908°
revolutions per day: 14.34214549
mean anomaly at epoch: 28.1960°
orbit number at epoch: 92137

The dashed part of the orbit path shows where the satellite is in the earth's shadow,  

DLR